Weather in Firovo

Russia / Tver Oblast     57°28′49″N   33°42′01″E
temp.,
°C
wind,
m/s
gust,
m/s
humid.,
%
clouds,
%
prec.,
mm/h
press.,
hPa
HPBL,
m
9 may, sun
sun900:00+2nw3108995 0.0 1009447
03:00+3nw5108899 0.0 1010719
06:00+2nw4984100 0.0 10121106
09:00+6nw59605 0.0 10141197
12:00+10nw6841100 0.0 10152315
15:00+10nw6740100 0.0 10172388
18:00+10wnw46435 0.0 10192237
21:00+4w24665 0.0 102273
10 may, mon
mon1000:00+2w22675 0.0 102410
03:00+2sw22685 0.0 102611
06:00+3ssw24695 0.0 102791
09:00+10ssw35495 0.0 1027557
12:00+14ssw453782 0.0 10261471
15:00+16ssw343973 0.0 10261405
18:00+16ssw345052 0.0 10261201
21:00+10s3672100 0.0 102791
11 may, tue
tue1100:00+7ssw357610 0.0 102886
03:00+6ssw2578100 0.0 102982
06:00+7s2374100 0.0 103077
09:00+14sse23525 0.0 1030438
12:00+18se34435 0.0 1028985
15:00+19ese34415 0.0 10271230
18:00+18ese355068 0.0 1027969
21:00+11ese37775 0.0 1028120
12 may, wed
wed1200:00+9ese28835 0.0 1028143
03:00+8ese23871 0.0 102854
06:00+9ese25880 0.0 1028124
09:00+16ese35704 0.0 1027542
12:00+20e465614 0.0 10251357
15:00+22e584614 0.1 10222134
18:00+19e5106514 0.5 10201221
21:00+14e5139135 2.6 1019802
13 may, thu
thu1300:00+13ese6128956 0.2 10201076
03:00+7se3109514 0.2 1021466
06:00+7ese39955 0.0 1021298
09:00+12e48686 0.0 1019640
12:00+16se61256100 0.0 10181906
15:00+15sse596341 0.1 10171264
18:00+16sse4860100 0.1 10171414
21:00+11sse2683100 0.1 1018154